Location: Unspecified
(40.7945°N, 111.1337°W)
Time: 02:50:12
(UTC-06:00)

Altair - Pass Details

Date: 04 July 2019
Orbit: 1501 x 1683 km, 47.2° (Epoch: 24 August)

Event Time Altitude Azimuth Distance (km) Brightness Sun altitude
Rises 02:05:43 0° 293° (WNW) 4,819 10.3 -25.7°
Reaches altitude 10° 02:09:41 10° 279° (W) 3,859 9.6 -25.6°
Enters shadow 02:15:35 22° 242° (WSW) 3,048 8.7 -25.4°
